EW9960 Weather Reports


time (UTC)temp
C
wind
direction
speed
KPH
gust
KPH
rain 1hr
cm
rain 24hr
cm
rain mn
cm
humidity
%
barometer
mb
20260505151559 10 9 0.0 8.0 0.05 0.89 0.89 31 1009.4
20260505124600 15 164 0.0 1.6 0.00 0.08 0.08 61 1008.6
20260505123027 15 164 0.0 1.6 0.00 0.08 0.08 63 1008.4
20260505121620 15 167 0.0 3.2 0.00 0.08 0.08 68 1008.8
20260505120023 15 172 0.0 3.2 0.00 0.08 0.08 59 1008.5
20260505114542 14 243 0.0 0.0 0.00 0.08 0.08 40 1007.8
20260505113058 14 163 0.0 0.0 0.00 0.08 0.08 29 1007.7
20260505111600 14 138 0.0 0.0 0.00 0.08 0.08 27 1007.7
20260505101519 15 137 0.0 0.0 0.00 0.08 0.08 39 1007.6
20260505100046 15 138 0.0 0.0 0.00 0.08 0.08 49 1007.7
20260505094553 15 137 0.0 0.0 0.05 0.08 0.08 54 1007.8
20260505094501 15 138 0.0 0.0 0.05 0.08 0.08 54 1007.8
20260505093025 15 138 0.0 0.0 0.05 0.08 0.08 60 1007.8
20260505091552 15 137 0.0 0.0 0.08 0.08 0.08 65 1008.0
20260505090059 16 138 0.0 1.6 0.08 0.08 0.08 73 1008.6
20260505084503 17 210 0.0 3.2 0.03 0.03 0.03 74 1008.7
20260505083015 18 100 1.6 4.8 0.00 0.00 0.03 66 1008.2
20260505081543 18 293 1.6 6.4 0.00 0.00 0.00 65 1008.7
20260505080100 18 228 0.0 4.8 0.00 0.00 0.00 64 1007.3
20260505080000 18 192 0.0 4.8 0.00 0.00 0.00 65 1007.3
20260505074531 18 222 0.0 1.6 0.00 0.00 0.00 64 1007.5
20260505073100 18 228 0.0 3.2 0.00 0.00 0.00 63 1007.7
20260505071538 18 191 0.0 6.4 0.00 0.00 0.00 62 1007.5
20260505070104 18 197 0.0 12.9 0.00 0.00 0.00 62 1007.6
20260505064527 18 193 0.0 4.8 0.00 0.00 0.00 63 1007.5
20260505063053 18 193 0.0 3.2 0.00 0.00 0.00 62 1007.4
20260505061512 19 186 0.0 6.4 0.00 0.00 0.00 61 1007.1
20260505060023 19 359 0.0 4.8 0.00 0.00 0.00 60 1007.2
20260505054543 19 194 0.0 4.8 0.00 0.00 0.00 60 1007.0
20260505053053 20 97 0.0 6.4 0.00 0.00 0.00 59 1006.7
20260505051559 20 189 0.0 9.7 0.00 0.00 0.00 59 1006.7
20260505041546 19 234 0.0 1.6 0.00 0.00 0.00 60 1006.7
20260505040104 19 179 0.0 8.0 0.00 0.00 0.00 60 1007.0
20260505040001 19 262 0.0 8.0 0.00 0.00 0.00 60 1007.0
20260505034536 20 171 0.0 3.2 0.00 0.00 0.00 59 1007.1
20260505033006 20 179 0.0 6.4 0.00 0.00 0.00 58 1006.9
20260505031543 20 259 0.0 6.4 0.00 0.00 0.00 58 1007.0
20260505024524 20 190 0.0 4.8 0.00 0.00 0.00 57 1006.6
20260505023053 20 200 0.0 6.4 0.00 0.00 0.00 56 1006.5
20260505021523 20 278 0.0 6.4 0.00 0.00 0.00 56 1006.3
20260505020048 20 269 0.0 3.2 0.00 0.00 0.00 56 1006.2
20260505014540 21 185 0.0 4.8 0.00 0.00 0.00 54 1006.1
20260505013015 21 181 1.6 6.4 0.00 0.00 0.00 54 1005.9
20260505011547 21 187 0.0 4.8 0.00 0.00 0.00 52 1005.7
20260505010016 22 176 0.0 9.7 0.00 0.00 0.00 50 1005.6
20260505004519 22 198 0.0 8.0 0.00 0.00 0.00 49 1005.6
20260505003047 22 231 0.0 17.7 0.00 0.00 0.00 48 1005.5
20260505001557 23 206 0.0 9.7 0.00 0.00 0.00 47 1005.3
20260505000042 23 212 1.6 11.3 0.00 0.00 0.00 47 1005.2
20260504234507 23 215 1.6 8.0 0.00 0.00 0.00 47 1005.2
20260504233050 23 187 1.6 12.9 0.00 0.00 0.00 44 1005.4
20260504231520 24 356 1.6 12.9 0.00 0.00 0.00 43 1005.7
20260504230109 25 262 0.0 8.0 0.00 0.00 0.00 42 1005.7
20260504224524 25 265 1.6 9.7 0.00 0.00 0.00 41 1005.7
20260504223038 25 176 1.6 14.5 0.00 0.00 0.00 45 1005.7
20260504221547 24 214 0.0 9.7 0.00 0.00 0.00 44 1005.9
20260504220005 23 321 3.2 12.9 0.00 0.00 0.00 45 1006.0
20260504214541 22 264 1.6 11.3 0.00 0.00 0.00 53 1005.7
20260504213049 19 118 3.2 8.0 0.00 0.00 0.00 63 1005.7
20260504211506 20 268 0.0 1.6 0.00 0.00 0.00 51 1008.6
20260504210040 20 268 0.0 1.6 0.00 0.00 0.00 51 1008.5
20260504204513 21 108 0.0 4.8 0.00 0.00 0.00 52 1008.4
20260504203046 21 52 0.0 1.6 0.00 0.00 0.00 51 1008.6
20260504201514 22 65 0.0 3.2 0.00 0.00 0.00 48 1008.6
20260504200100 22 246 0.0 4.8 0.00 0.00 0.00 48 1008.6
20260504194509 22 349 0.0 6.4 0.00 0.00 0.00 46 1008.4
20260504193019 23 243 0.0 11.3 0.00 0.00 0.00 46 1008.2
20260504191525 23 146 0.0 4.8 0.00 0.00 0.00 46 1008.3
20260504190039 23 177 1.6 11.3 0.00 0.00 0.00 44 1008.2
20260504184544 23 60 0.0 8.0 0.00 0.00 0.00 52 1007.5
20260504183023 23 112 0.0 8.0 0.00 0.00 0.00 55 1007.5
20260504181544 22 86 0.0 6.4 0.00 0.00 0.00 55 1007.8
20260504180020 22 190 0.0 3.2 0.00 0.00 0.00 57 1008.1
20260504174554 22 278 0.0 3.2 0.00 0.00 0.00 56 1008.3
20260504173021 22 193 0.0 1.6 0.00 0.00 0.00 56 1008.6
20260504171526 22 241 0.0 4.8 0.00 0.00 0.00 53 1009.1